Lid_Strength_Index
5 6 7 8 9 10 10 10 10 9 10 10 11 12 12 13 12 13 15 15 16 16
5 8 9 10 9 9 10 10 10 9 10 11 12 12 12 13 13 14 14 15 15 16
8 8 9 9 9 10 9 10 10 10 12 12 12 13 13 14 14 15 15 15 16 16
10 10 10 9 9 10 10 11 11 12 12 12 13 13 14 15 15 15 16 16 16 16
10 10 10 10 10 11 11 11 12 13 13 13 14 14 14 14 15 15 16 16 16 16
10 12 12 12 12 11 12 12 13 13 13 14 14 15 15 15 15 15 15 16 17 16
12 12 11 11 12 12 12 13 13 14 14 15 15 14 14 14 14 15 16 17 16 16
11 11 11 12 11 13 13 14 15 15 15 15 15 14 15 15 15 16 17 17 16 16
11 11 12 12 14 14 14 14 15 15 15 15 14 12 12 14 16 16 17 17 18 17
12 13 12 13 14 14 15 15 15 16 15 16 14 13 13 13 16 18 18 18 17 16
12 12 13 14 15 15 15 16 16 16 16 15 14 13 13 14 18 18 17 17 17 17
13 15 15 15 15 15 16 16 16 16 16 16 16 13 14 15 17 16 17 16 16 16
15 15 15 15 15 15 15 16 16 17 17 16 18 14 14 15 16 17 16 16 16 13
15 15 15 15 15 16 16 17 17 18 19 19 17 17 13 13 16 16 16 16 16 15